International Virtual Aviation Organisation

Russian Federation and Kazakhstan MCD

 

Карточка аэропорта UUWW

Внимание!
Информация на этой странице в стадии наполнения.
Если вы не увидели какой-то информации, или заметили неточность - пожалуйста сообщите нам!
Спасибо!
Команда RU-STAFF
Название аэропортаВнуково
Название аэропорта (англ.)Vnukovo
Превышение686 ft. (209.1 m.)
Координаты55°35.952', 37°16.386'
Высота перехода1200 m
Эшелон переходаBy ATC
Коды ответчика2101-2117
Зона ОрВДМосква РПИ (UUWV)
Данные METARUUWW 281330Z 09002MPS 3500 BR OVC002 01/01 Q1023 R06/290050 TEMPO 1000 BR
Проноз погоды (TAF)UUWW 281059Z 2812/2912 09003MPS 2100 BR OVC003 TX02/2909Z TN00/2901Z TEMPO 2812/2820 0300 -SN FG OVC001 FM282000 08005G10MPS 2500 -SNRA BR OVC004 TEMPO 2822/2906 1000 SNRA BR OVC001
NOTAMshow/hide NOTAM
AWOS   TABLE

Информация о ВПП

ВПП Длина ВПП (м.) Покрытие Курс ВПП Частота ILS
013060Асфальтобетон13111.7
193060Асфальтобетон193111.5
063500Цементобетон58108.9
243500Цементобетон238111.1

Диспетчерские позиции

Позывной Наименование органа УВД Частота
UUWW_APPВнуково-Подход122.300
UUWW_TWRВнуково-Вышка118.300
UUWW_R_APPВнуково-Круг126.000
UUWW_GNDВнуково-Руление120.450
UUWW_GNDВнуково-Руление121.700
UUWW_DELВнуково-Деливери131.800
UUWW_DELВнуково-Деливери129.700



Спутниковое изображение